Location: *
(45.1961°N, 1.9694°E)
Time: 22:53:20
(UTC+00:00)

IGS 5A - Pass Details

Date: 25 August 2019
Orbit: 583 x 589 km, 97.6° (Epoch: 27 September)

Event Time Altitude Azimuth Distance (km) Brightness Sun altitude
Exits shadow 21:22:04 76° 353° (N) 612 3.5 -24.5°
Drops below altitude 10° 21:25:57 10° 348° (NNW) 1,928 6.9 -25.0°
Sets 21:28:07 0° 348° (NNW) 2,833 7.9 -25.2°
